Time,TemperatureF,DewpointF,PressureIn,WindDirection,WindDirectionDegrees,WindSpeedMPH,WindSpeedGustMPH,Humidity,HourlyPrecipIn,Conditions,Clouds,dailyrainin,SoftwareType,DateUTC
2013-08-16 00:00:00,64.3,57.6,29.85,East,87,1.0,1.0,79,0.00,,,0.00,Wunderground v.1.15,2013-08-15 11:00:00,
2013-08-16 00:05:00,64.1,57.5,29.85,East,93,1.0,1.0,79,0.00,,,0.00,Wunderground v.1.15,2013-08-15 11:05:00,
2013-08-16 00:10:00,64.0,57.4,29.85,SE,124,1.0,1.0,79,0.00,,,0.00,Wunderground v.1.15,2013-08-15 11:10:00,
2013-08-16 00:20:00,63.7,56.7,29.85,East,82,2.0,3.0,78,0.00,,,0.00,Wunderground v.1.15,2013-08-15 11:20:00,
2013-08-16 00:30:00,63.6,57.0,29.85,East,92,2.0,2.0,79,0.00,,,0.00,Wunderground v.1.15,2013-08-15 11:30:00,
2013-08-16 00:40:00,63.5,56.9,29.85,East,86,2.0,2.0,79,0.00,,,0.00,Wunderground v.1.15,2013-08-15 11:40:00,
2013-08-16 00:50:00,63.5,56.9,29.85,ESE,108,2.0,2.0,79,0.00,,,0.00,Wunderground v.1.15,2013-08-15 11:50:00,
2013-08-16 01:00:00,63.5,57.2,29.85,East,91,3.0,3.0,80,0.00,,,0.00,Wunderground v.1.15,2013-08-15 12:00:00,
2013-08-16 01:05:00,63.5,57.2,29.85,ESE,111,2.0,3.0,80,0.00,,,0.00,Wunderground v.1.15,2013-08-15 12:05:00,
2013-08-16 01:15:00,63.3,57.0,29.86,SE,131,2.0,4.0,80,0.00,,,0.00,Wunderground v.1.15,2013-08-15 12:15:00,
2013-08-16 01:20:00,63.2,57.3,29.86,ESE,105,2.0,2.0,81,0.00,,,0.00,Wunderground v.1.15,2013-08-15 12:20:00,
2013-08-16 01:30:00,62.9,57.0,29.86,SE,136,2.0,2.0,81,0.00,,,0.00,Wunderground v.1.15,2013-08-15 12:30:00,
2013-08-16 01:35:00,62.8,56.9,29.86,ESE,122,2.0,3.0,81,0.00,,,0.00,Wunderground v.1.15,2013-08-15 12:35:00,
2013-08-16 01:40:00,62.8,57.2,29.86,ESE,116,2.0,3.0,82,0.00,,,0.00,Wunderground v.1.15,2013-08-15 12:40:00,
2013-08-16 01:50:00,62.8,57.6,29.86,SE,131,2.0,2.0,83,0.00,,,0.00,Wunderground v.1.15,2013-08-15 12:50:00,
2013-08-16 02:00:00,62.6,57.4,29.87,East,96,1.0,1.0,83,0.00,,,0.00,Wunderground v.1.15,2013-08-15 13:00:00,
2013-08-16 02:05:00,62.5,57.6,29.87,ESE,102,1.0,1.0,84,0.00,,,0.00,Wunderground v.1.15,2013-08-15 13:05:00,
2013-08-16 02:15:00,62.4,57.5,29.87,ESE,115,2.0,2.0,84,0.00,,,0.00,Wunderground v.1.15,2013-08-15 13:15:00,
2013-08-16 02:25:00,62.2,57.6,29.87,ESE,117,1.0,2.0,85,0.00,,,0.00,Wunderground v.1.15,2013-08-15 13:25:00,
2013-08-16 02:35:00,62.3,57.7,29.88,ESE,104,1.0,2.0,85,0.00,,,0.00,Wunderground v.1.15,2013-08-15 13:35:00,
2013-08-16 02:45:00,62.4,57.5,29.88,SE,136,2.0,4.0,84,0.00,,,0.00,Wunderground v.1.15,2013-08-15 13:45:00,
2013-08-16 02:50:00,62.6,57.7,29.88,SE,131,3.0,3.0,84,0.00,,,0.00,Wunderground v.1.15,2013-08-15 13:50:00,
2013-08-16 03:00:00,63.1,58.2,29.88,ESE,119,2.0,3.0,84,0.00,,,0.00,Wunderground v.1.15,2013-08-15 14:00:00,
2013-08-16 03:05:00,63.8,58.5,29.88,ENE,65,2.0,3.0,83,0.00,,,0.00,Wunderground v.1.15,2013-08-15 14:05:00,
2013-08-16 03:15:00,65.2,59.2,29.89,SSE,150,2.0,3.0,81,0.00,,,0.00,Wunderground v.1.15,2013-08-15 14:15:00,
2013-08-16 03:25:00,66.2,59.5,29.89,ESE,123,2.0,4.0,79,0.00,,,0.00,Wunderground v.1.15,2013-08-15 14:25:00,
2013-08-16 03:35:00,66.8,59.7,29.89,ESE,113,3.0,7.0,78,0.00,,,0.00,Wunderground v.1.15,2013-08-15 14:35:00,
2013-08-16 03:40:00,67.2,59.7,29.89,SSE,155,3.0,3.0,77,0.00,,,0.00,Wunderground v.1.15,2013-08-15 14:40:00,
2013-08-16 03:50:00,67.6,59.4,29.89,SE,136,3.0,4.0,75,0.00,,,0.00,Wunderground v.1.15,2013-08-15 14:50:00,
2013-08-16 04:00:00,68.1,59.1,29.90,SE,128,4.0,7.0,73,0.00,,,0.00,Wunderground v.1.15,2013-08-15 15:00:00,
2013-08-16 04:10:00,68.5,58.7,29.90,ESE,120,5.0,5.0,71,0.00,,,0.00,Wunderground v.1.15,2013-08-15 15:10:00,
2013-08-16 04:15:00,68.6,58.8,29.90,SE,136,5.0,5.0,71,0.00,,,0.00,Wunderground v.1.15,2013-08-15 15:15:00,
2013-08-16 04:25:00,68.7,59.3,29.90,SE,124,5.0,6.0,72,0.00,,,0.00,Wunderground v.1.15,2013-08-15 15:25:00,
2013-08-16 04:30:00,69.2,59.8,29.90,SSE,160,4.0,6.0,72,0.00,,,0.00,Wunderground v.1.15,2013-08-15 15:30:00,
2013-08-16 04:35:00,69.6,59.8,29.90,South,169,4.0,7.0,71,0.00,,,0.00,Wunderground v.1.15,2013-08-15 15:35:00,
2013-08-16 04:45:00,70.0,60.2,29.90,SSE,148,5.0,6.0,71,0.00,,,0.00,Wunderground v.1.15,2013-08-15 15:45:00,
2013-08-16 04:50:00,70.3,60.1,29.91,SE,134,4.0,6.0,70,0.00,,,0.00,Wunderground v.1.15,2013-08-15 15:50:00,
2013-08-16 05:00:00,70.7,60.0,29.91,ESE,105,5.0,5.0,69,0.00,,,0.00,Wunderground v.1.15,2013-08-15 16:00:00,
2013-08-16 05:05:00,71.0,60.3,29.91,ESE,106,5.0,5.0,69,0.00,,,0.00,Wunderground v.1.15,2013-08-15 16:05:00,
2013-08-16 05:15:00,71.8,60.2,29.91,SSE,160,4.0,7.0,67,0.00,,,0.00,Wunderground v.1.15,2013-08-15 16:15:00,
2013-08-16 05:20:00,72.6,60.6,29.91,ESE,113,3.0,3.0,66,0.00,,,0.00,Wunderground v.1.15,2013-08-15 16:20:00,
2013-08-16 05:30:00,73.7,60.8,29.91,ESE,105,3.0,4.0,64,0.00,,,0.00,Wunderground v.1.15,2013-08-15 16:30:00,
2013-08-16 05:35:00,73.7,60.8,29.91,SE,143,4.0,4.0,64,0.00,,,0.00,Wunderground v.1.15,2013-08-15 16:35:00,
2013-08-16 05:45:00,73.8,60.9,29.91,SSE,149,5.0,10.0,64,0.00,,,0.00,Wunderground v.1.15,2013-08-15 16:45:00,
2013-08-16 05:50:00,74.0,61.0,29.91,ESE,117,5.0,5.0,64,0.00,,,0.00,Wunderground v.1.15,2013-08-15 16:50:00,
2013-08-16 06:00:00,74.4,61.0,29.91,SE,141,5.0,5.0,63,0.00,,,0.00,Wunderground v.1.15,2013-08-15 17:00:00,
2013-08-16 06:10:00,75.2,61.7,29.91,ESE,112,5.0,5.0,63,0.00,,,0.00,Wunderground v.1.15,2013-08-15 17:10:00,
2013-08-16 06:15:00,76.1,61.7,29.91,ESE,108,4.0,5.0,61,0.00,,,0.00,Wunderground v.1.15,2013-08-15 17:15:00,
2013-08-16 06:25:00,77.0,61.6,29.91,SSW,204,3.0,5.0,59,0.00,,,0.00,Wunderground v.1.15,2013-08-15 17:25:00,
2013-08-16 06:35:00,77.8,62.3,29.91,South,181,4.0,4.0,59,0.00,,,0.00,Wunderground v.1.15,2013-08-15 17:35:00,
2013-08-16 06:40:00,78.3,61.3,29.91,SSE,160,3.0,5.0,56,0.00,,,0.00,Wunderground v.1.15,2013-08-15 17:40:00,
2013-08-16 06:50:00,78.3,61.8,29.91,SSE,147,5.0,5.0,57,0.00,,,0.00,Wunderground v.1.15,2013-08-15 17:50:00,
2013-08-16 06:55:00,78.8,61.8,29.91,SSE,160,4.0,5.0,56,0.00,,,0.00,Wunderground v.1.15,2013-08-15 17:55:00,
2013-08-16 07:05:00,79.8,61.1,29.91,South,191,3.0,4.0,53,0.00,,,0.00,Wunderground v.1.15,2013-08-15 18:05:00,
2013-08-16 07:15:00,81.1,61.8,29.91,ESE,115,4.0,6.0,52,0.00,,,0.00,Wunderground v.1.15,2013-08-15 18:15:00,
2013-08-16 07:20:00,81.3,62.0,29.90,SE,129,3.0,3.0,52,0.00,,,0.00,Wunderground v.1.15,2013-08-15 18:20:00,
2013-08-16 07:35:00,82.5,61.4,29.90,South,171,4.0,4.0,49,0.00,,,0.00,Wunderground v.1.15,2013-08-15 18:35:00,
2013-08-16 07:45:00,83.4,61.7,29.90,SSW,193,3.0,5.0,48,0.00,,,0.00,Wunderground v.1.15,2013-08-15 18:45:00,
2013-08-16 08:05:00,84.2,61.2,29.89,SSW,211,3.0,3.0,46,0.00,,,0.00,Wunderground v.1.15,2013-08-15 19:05:00,
2013-08-16 08:15:00,85.3,60.9,29.89,ESE,119,3.0,4.0,44,0.00,,,0.00,Wunderground v.1.15,2013-08-15 19:15:00,
2013-08-16 08:25:00,85.0,61.9,29.89,South,189,3.0,4.0,46,0.00,,,0.00,Wunderground v.1.15,2013-08-15 19:25:00,
2013-08-16 08:30:00,85.9,62.1,29.89,WSW,249,4.0,4.0,45,0.00,,,0.00,Wunderground v.1.15,2013-08-15 19:30:00,
2013-08-16 08:40:00,86.1,61.6,29.89,SE,131,4.0,4.0,44,0.00,,,0.00,Wunderground v.1.15,2013-08-15 19:40:00,
2013-08-16 08:50:00,87.2,61.3,29.89,SW,228,3.0,9.0,42,0.00,,,0.00,Wunderground v.1.15,2013-08-15 19:50:00,
2013-08-16 09:00:00,87.5,61.6,29.89,SSW,194,3.0,4.0,42,0.00,,,0.00,Wunderground v.1.15,2013-08-15 20:00:00,
2013-08-16 09:20:00,88.5,61.8,29.89,West,278,3.0,3.0,41,0.00,,,0.00,Wunderground v.1.15,2013-08-15 20:20:00,
2013-08-16 09:30:00,89.0,60.8,29.89,SE,131,3.0,5.0,39,0.00,,,0.00,Wunderground v.1.15,2013-08-15 20:30:00,
2013-08-16 09:35:00,89.3,61.1,29.88,SW,231,3.0,5.0,39,0.00,,,0.00,Wunderground v.1.15,2013-08-15 20:35:00,
2013-08-16 09:40:00,90.3,60.5,29.88,WNW,290,3.0,3.0,37,0.00,,,0.00,Wunderground v.1.15,2013-08-15 20:40:00,
2013-08-16 09:45:00,90.6,60.8,29.88,SSE,158,2.0,3.0,37,0.00,,,0.00,Wunderground v.1.15,2013-08-15 20:45:00,
2013-08-16 09:50:00,90.9,61.0,29.88,WSW,242,2.0,3.0,37,0.00,,,0.00,Wunderground v.1.15,2013-08-15 20:50:00,
2013-08-16 10:00:00,91.1,59.6,29.88,South,188,4.0,4.0,35,0.00,,,0.00,Wunderground v.1.15,2013-08-15 21:00:00,
2013-08-16 10:05:00,91.3,60.6,29.88,South,190,4.0,5.0,36,0.00,,,0.00,Wunderground v.1.15,2013-08-15 21:05:00,
2013-08-16 10:20:00,92.6,61.0,29.87,SSE,162,3.0,3.0,35,0.00,,,0.00,Wunderground v.1.15,2013-08-15 21:20:00,
2013-08-16 10:35:00,93.2,59.8,29.87,South,172,4.0,7.0,33,0.00,,,0.00,Wunderground v.1.15,2013-08-15 21:35:00,
2013-08-16 10:45:00,93.8,59.5,29.87,SSW,208,2.0,5.0,32,0.00,,,0.00,Wunderground v.1.15,2013-08-15 21:45:00,
2013-08-16 10:50:00,93.4,57.3,29.87,WSW,250,4.0,4.0,30,0.00,,,0.00,Wunderground v.1.15,2013-08-15 21:50:00,
2013-08-16 10:55:00,93.6,58.4,29.86,SSW,194,4.0,4.0,31,0.00,,,0.00,Wunderground v.1.15,2013-08-15 21:55:00,
2013-08-16 11:10:00,94.1,58.8,29.86,SW,214,4.0,4.0,31,0.00,,,0.00,Wunderground v.1.15,2013-08-15 22:10:00,
2013-08-16 11:15:00,94.9,58.6,29.86,SSW,194,4.0,4.0,30,0.00,,,0.00,Wunderground v.1.15,2013-08-15 22:15:00,
2013-08-16 11:20:00,95.2,57.9,29.86,SSW,197,4.0,6.0,29,0.00,,,0.00,Wunderground v.1.15,2013-08-15 22:20:00,
2013-08-16 11:30:00,95.6,56.3,29.86,SW,233,3.0,4.0,27,0.00,,,0.00,Wunderground v.1.15,2013-08-15 22:30:00,
2013-08-16 11:35:00,95.2,57.0,29.85,ESE,108,4.0,4.0,28,0.00,,,0.00,Wunderground v.1.15,2013-08-15 22:35:00,
2013-08-16 11:45:00,94.9,57.7,29.85,West,278,3.0,4.0,29,0.00,,,0.00,Wunderground v.1.15,2013-08-15 22:45:00,
2013-08-16 11:50:00,95.1,56.9,29.85,WSW,242,4.0,4.0,28,0.00,,,0.00,Wunderground v.1.15,2013-08-15 22:50:00,
2013-08-16 12:00:00,95.2,57.0,29.85,South,180,4.0,4.0,28,0.00,,,0.00,Wunderground v.1.15,2013-08-15 23:00:00,
2013-08-16 12:05:00,95.2,57.0,29.85,SW,224,4.0,4.0,28,0.00,,,0.00,Wunderground v.1.15,2013-08-15 23:05:00,
2013-08-16 12:15:00,95.7,56.4,29.84,SSE,168,3.0,3.0,27,0.00,,,0.00,Wunderground v.1.15,2013-08-15 23:15:00,
2013-08-16 12:20:00,96.2,55.8,29.84,SSE,159,4.0,5.0,26,0.00,,,0.00,Wunderground v.1.15,2013-08-15 23:20:00,
2013-08-16 12:25:00,96.3,56.9,29.84,SW,222,4.0,5.0,27,0.00,,,0.00,Wunderground v.1.15,2013-08-15 23:25:00,
2013-08-16 12:35:00,96.4,54.8,29.84,SSE,163,5.0,6.0,25,0.00,,,0.00,Wunderground v.1.15,2013-08-15 23:35:00,
2013-08-16 12:45:00,96.6,55.0,29.84,SSE,153,3.0,4.0,25,0.00,,,0.00,Wunderground v.1.15,2013-08-15 23:45:00,
2013-08-16 12:50:00,96.1,54.6,29.84,WSW,246,4.0,6.0,25,0.00,,,0.00,Wunderground v.1.15,2013-08-15 23:50:00,
2013-08-16 13:00:00,96.4,52.6,29.83,SSE,165,4.0,4.0,23,0.00,,,0.00,Wunderground v.1.15,2013-08-16 00:00:00,
2013-08-16 13:10:00,96.9,55.3,29.83,South,191,3.0,3.0,25,0.00,,,0.00,Wunderground v.1.15,2013-08-16 00:10:00,
2013-08-16 13:20:00,97.5,54.6,29.83,SSE,148,3.0,3.0,24,0.00,,,0.00,Wunderground v.1.15,2013-08-16 00:20:00,
2013-08-16 13:30:00,96.9,55.3,29.83,South,176,4.0,4.0,25,0.00,,,0.00,Wunderground v.1.15,2013-08-16 00:30:00,
2013-08-16 13:35:00,97.0,56.4,29.83,NW,304,4.0,4.0,26,0.00,,,0.00,Wunderground v.1.15,2013-08-16 00:35:00,
2013-08-16 13:50:00,96.5,54.9,29.83,SW,226,4.0,7.0,25,0.00,,,0.00,Wunderground v.1.15,2013-08-16 00:50:00,
2013-08-16 14:00:00,96.4,53.7,29.83,SW,236,5.0,5.0,24,0.00,,,0.00,Wunderground v.1.15,2013-08-16 01:00:00,
2013-08-16 14:05:00,96.3,52.5,29.83,SW,228,4.0,5.0,23,0.00,,,0.00,Wunderground v.1.15,2013-08-16 01:05:00,
2013-08-16 14:20:00,96.4,51.4,29.82,SSE,150,4.0,4.0,22,0.00,,,0.00,Wunderground v.1.15,2013-08-16 01:20:00,
2013-08-16 14:30:00,96.3,52.5,29.82,South,170,4.0,4.0,23,0.00,,,0.00,Wunderground v.1.15,2013-08-16 01:30:00,
2013-08-16 14:35:00,96.1,52.3,29.82,SSW,212,4.0,4.0,23,0.00,,,0.00,Wunderground v.1.15,2013-08-16 01:35:00,
2013-08-16 14:45:00,96.0,54.5,29.82,SW,225,3.0,5.0,25,0.00,,,0.00,Wunderground v.1.15,2013-08-16 01:45:00,
2013-08-16 14:55:00,94.9,53.6,29.83,SSE,162,5.0,5.0,25,0.00,,,0.00,Wunderground v.1.15,2013-08-16 01:55:00,
2013-08-16 15:05:00,94.5,55.4,29.83,SSE,160,4.0,6.0,27,0.00,,,0.00,Wunderground v.1.15,2013-08-16 02:05:00,
2013-08-16 15:15:00,93.9,55.8,29.83,South,169,4.0,4.0,28,0.00,,,0.00,Wunderground v.1.15,2013-08-16 02:15:00,
2013-08-16 15:20:00,93.6,56.6,29.83,SSE,149,4.0,4.0,29,0.00,,,0.00,Wunderground v.1.15,2013-08-16 02:20:00,
2013-08-16 15:30:00,92.6,56.6,29.83,SSE,153,4.0,4.0,30,0.00,,,0.00,Wunderground v.1.15,2013-08-16 02:30:00,
2013-08-16 15:35:00,92.1,57.1,29.83,ESE,122,3.0,4.0,31,0.00,,,0.00,Wunderground v.1.15,2013-08-16 02:35:00,
2013-08-16 15:45:00,90.7,60.1,29.83,SSE,165,3.0,3.0,36,0.00,,,0.00,Wunderground v.1.15,2013-08-16 02:45:00,
2013-08-16 15:50:00,89.9,60.9,29.84,SE,146,3.0,3.0,38,0.00,,,0.00,Wunderground v.1.15,2013-08-16 02:50:00,
2013-08-16 15:55:00,88.9,61.5,29.84,SSE,160,2.0,4.0,40,0.00,,,0.00,Wunderground v.1.15,2013-08-16 02:55:00,
2013-08-16 16:05:00,87.0,61.8,29.84,SE,146,3.0,5.0,43,0.00,,,0.00,Wunderground v.1.15,2013-08-16 03:05:00,
2013-08-16 16:15:00,85.9,61.5,29.84,SE,139,4.0,4.0,44,0.00,,,0.00,Wunderground v.1.15,2013-08-16 03:15:00,
2013-08-16 16:25:00,84.8,62.3,29.85,ESE,115,4.0,4.0,47,0.00,,,0.00,Wunderground v.1.15,2013-08-16 03:25:00,
2013-08-16 16:35:00,83.8,62.6,29.85,South,174,3.0,5.0,49,0.00,,,0.00,Wunderground v.1.15,2013-08-16 03:35:00,
2013-08-16 16:45:00,83.0,63.0,29.85,SSE,158,4.0,4.0,51,0.00,,,0.00,Wunderground v.1.15,2013-08-16 03:45:00,
2013-08-16 16:50:00,82.5,63.1,29.85,SE,140,4.0,4.0,52,0.00,,,0.00,Wunderground v.1.15,2013-08-16 03:50:00,
2013-08-16 16:55:00,82.0,63.2,29.85,SE,128,4.0,4.0,53,0.00,,,0.00,Wunderground v.1.15,2013-08-16 03:55:00,
2013-08-16 17:05:00,81.2,63.0,29.85,SE,139,4.0,6.0,54,0.00,,,0.00,Wunderground v.1.15,2013-08-16 04:05:00,
2013-08-16 17:15:00,80.4,63.3,29.86,SE,145,4.0,4.0,56,0.00,,,0.00,Wunderground v.1.15,2013-08-16 04:15:00,
2013-08-16 17:20:00,80.1,63.0,29.86,South,169,4.0,4.0,56,0.00,,,0.00,Wunderground v.1.15,2013-08-16 04:20:00,
2013-08-16 17:25:00,79.8,63.2,29.86,SSE,163,4.0,4.0,57,0.00,,,0.00,Wunderground v.1.15,2013-08-16 04:25:00,
2013-08-16 17:30:00,79.5,63.4,29.86,SSE,157,4.0,4.0,58,0.00,,,0.00,Wunderground v.1.15,2013-08-16 04:30:00,
2013-08-16 17:35:00,79.2,63.6,29.86,SE,142,3.0,4.0,59,0.00,,,0.00,Wunderground v.1.15,2013-08-16 04:35:00,
2013-08-16 17:40:00,78.8,63.3,29.86,SE,124,3.0,3.0,59,0.00,,,0.00,Wunderground v.1.15,2013-08-16 04:40:00,
2013-08-16 17:50:00,78.1,63.1,29.86,SSE,160,2.0,3.0,60,0.00,,,0.00,Wunderground v.1.15,2013-08-16 04:50:00,
2013-08-16 17:55:00,77.7,63.2,29.87,SE,127,2.0,3.0,61,0.00,,,0.00,Wunderground v.1.15,2013-08-16 04:55:00,
2013-08-16 18:05:00,77.2,63.2,29.87,SE,131,2.0,3.0,62,0.00,,,0.00,Wunderground v.1.15,2013-08-16 05:05:00,
2013-08-16 18:15:00,76.8,62.8,29.87,SE,138,2.0,5.0,62,0.00,,,0.00,Wunderground v.1.15,2013-08-16 05:15:00,
2013-08-16 18:20:00,76.6,63.1,29.87,ESE,110,3.0,3.0,63,0.00,,,0.00,Wunderground v.1.15,2013-08-16 05:20:00,
2013-08-16 18:30:00,76.1,63.0,29.87,SE,129,2.0,3.0,64,0.00,,,0.00,Wunderground v.1.15,2013-08-16 05:30:00,
2013-08-16 18:35:00,75.9,62.8,29.87,SSW,208,3.0,7.0,64,0.00,,,0.00,Wunderground v.1.15,2013-08-16 05:35:00,
2013-08-16 18:45:00,75.3,63.2,29.87,East,86,4.0,6.0,66,0.00,,,0.00,Wunderground v.1.15,2013-08-16 05:45:00,
2013-08-16 18:55:00,74.7,63.0,29.87,SE,131,3.0,3.0,67,0.00,,,0.00,Wunderground v.1.15,2013-08-16 05:55:00,
2013-08-16 19:00:00,74.4,63.1,29.88,SSE,150,3.0,3.0,68,0.00,,,0.00,Wunderground v.1.15,2013-08-16 06:00:00,
2013-08-16 19:05:00,74.2,63.0,29.88,ESE,117,3.0,6.0,68,0.00,,,0.00,Wunderground v.1.15,2013-08-16 06:05:00,
2013-08-16 19:15:00,73.8,63.0,29.88,SE,146,3.0,4.0,69,0.00,,,0.00,Wunderground v.1.15,2013-08-16 06:15:00,
2013-08-16 19:20:00,73.7,62.9,29.88,SE,136,3.0,3.0,69,0.00,,,0.00,Wunderground v.1.15,2013-08-16 06:20:00,
2013-08-16 19:30:00,73.3,62.9,29.88,ESE,115,3.0,3.0,70,0.00,,,0.00,Wunderground v.1.15,2013-08-16 06:30:00,
2013-08-16 19:35:00,73.1,62.7,29.88,SE,145,3.0,3.0,70,0.00,,,0.00,Wunderground v.1.15,2013-08-16 06:35:00,
2013-08-16 19:45:00,72.8,62.8,29.89,SSE,156,4.0,5.0,71,0.00,,,0.00,Wunderground v.1.15,2013-08-16 06:45:00,
2013-08-16 19:55:00,72.4,62.9,29.89,SE,131,4.0,4.0,72,0.00,,,0.00,Wunderground v.1.15,2013-08-16 06:55:00,
2013-08-16 20:05:00,72.1,62.6,29.89,SE,138,5.0,5.0,72,0.00,,,0.00,Wunderground v.1.15,2013-08-16 07:05:00,
2013-08-16 20:10:00,72.0,62.9,29.89,ESE,123,5.0,9.0,73,0.00,,,0.00,Wunderground v.1.15,2013-08-16 07:10:00,
2013-08-16 20:20:00,71.7,62.6,29.89,SE,131,4.0,4.0,73,0.00,,,0.00,Wunderground v.1.15,2013-08-16 07:20:00,
2013-08-16 20:25:00,71.5,62.4,29.89,SSE,163,3.0,4.0,73,0.00,,,0.00,Wunderground v.1.15,2013-08-16 07:25:00,
2013-08-16 20:35:00,71.3,62.6,29.89,SE,134,3.0,3.0,74,0.00,,,0.00,Wunderground v.1.15,2013-08-16 07:35:00,
2013-08-16 20:45:00,71.0,62.7,29.89,SE,130,3.0,3.0,75,0.00,,,0.00,Wunderground v.1.15,2013-08-16 07:45:00,
2013-08-16 20:55:00,70.6,62.3,29.89,SSE,149,3.0,6.0,75,0.00,,,0.00,Wunderground v.1.15,2013-08-16 07:55:00,
2013-08-16 21:05:00,70.2,62.3,29.88,ESE,112,4.0,4.0,76,0.00,,,0.00,Wunderground v.1.15,2013-08-16 08:05:00,
2013-08-16 21:15:00,69.9,62.4,29.89,SE,129,3.0,4.0,77,0.00,,,0.00,Wunderground v.1.15,2013-08-16 08:15:00,
2013-08-16 21:25:00,69.8,62.3,29.89,ESE,103,4.0,4.0,77,0.00,,,0.00,Wunderground v.1.15,2013-08-16 08:25:00,
2013-08-16 21:35:00,69.5,62.3,29.89,SSE,157,3.0,3.0,78,0.00,,,0.00,Wunderground v.1.15,2013-08-16 08:35:00,
2013-08-16 21:40:00,69.3,62.1,29.89,SSE,162,3.0,3.0,78,0.00,,,0.00,Wunderground v.1.15,2013-08-16 08:40:00,
2013-08-16 21:50:00,69.0,62.2,29.89,SSW,195,2.0,2.0,79,0.00,,,0.00,Wunderground v.1.15,2013-08-16 08:50:00,
2013-08-16 21:55:00,68.9,62.5,29.89,SE,125,2.0,2.0,80,0.00,,,0.00,Wunderground v.1.15,2013-08-16 08:55:00,
2013-08-16 22:00:00,68.7,62.3,29.88,ESE,110,2.0,2.0,80,0.00,,,0.00,Wunderground v.1.15,2013-08-16 09:00:00,
2013-08-16 22:05:00,68.6,62.2,29.89,East,93,2.0,2.0,80,0.00,,,0.00,Wunderground v.1.15,2013-08-16 09:05:00,
2013-08-16 22:15:00,68.4,62.0,29.88,ESE,108,2.0,2.0,80,0.00,,,0.00,Wunderground v.1.15,2013-08-16 09:15:00,
2013-08-16 22:25:00,67.9,61.9,29.88,ESE,117,2.0,4.0,81,0.00,,,0.00,Wunderground v.1.15,2013-08-16 09:25:00,
2013-08-16 22:35:00,67.4,61.7,29.88,ESE,102,2.0,3.0,82,0.00,,,0.00,Wunderground v.1.15,2013-08-16 09:35:00,
2013-08-16 22:40:00,67.3,61.6,29.88,East,92,2.0,2.0,82,0.00,,,0.00,Wunderground v.1.15,2013-08-16 09:40:00,
2013-08-16 22:50:00,67.1,61.4,29.88,ESE,105,2.0,2.0,82,0.00,,,0.00,Wunderground v.1.15,2013-08-16 09:50:00,
2013-08-16 23:00:00,66.9,61.6,29.88,East,86,3.0,3.0,83,0.00,,,0.00,Wunderground v.1.15,2013-08-16 10:00:00,
2013-08-16 23:05:00,66.8,61.5,29.88,SE,124,3.0,5.0,83,0.00,,,0.00,Wunderground v.1.15,2013-08-16 10:05:00,
2013-08-16 23:15:00,66.6,61.3,29.89,ESE,120,3.0,3.0,83,0.00,,,0.00,Wunderground v.1.15,2013-08-16 10:15:00,
2013-08-16 23:25:00,66.4,61.4,29.89,SSE,156,3.0,4.0,84,0.00,,,0.00,Wunderground v.1.15,2013-08-16 10:25:00,
2013-08-16 23:35:00,66.3,61.3,29.89,SE,128,2.0,2.0,84,0.00,,,0.00,Wunderground v.1.15,2013-08-16 10:35:00,
2013-08-16 23:40:00,66.2,61.2,29.89,ESE,107,2.0,2.0,84,0.00,,,0.00,Wunderground v.1.15,2013-08-16 10:40:00,
2013-08-16 23:50:00,65.9,61.3,29.89,ESE,120,2.0,2.0,85,0.00,,,0.00,Wunderground v.1.15,2013-08-16 10:50:00,
2013-08-16 23:55:00,65.8,61.2,29.89,SE,144,2.0,2.0,85,0.00,,,0.00,Wunderground v.1.15,2013-08-16 10:55:00,